Flag for Romania Weather past 2 weeks in Oradea, Romania

52 °F


Feels Like: 52 °F
Forecast: 52 / 55 °F
Wind: 2 mph from East

Location: Oradea Airport

Current Time: Oct 10, 2015 at 7:21:06 AM

Latest Report: Oct 10, 2015 at 6:30 AM

Visibility: 3 mi

Pressure: 30.12 "Hg

Humidity: 94%

Dew point: 50 °F

Location of OradeaLocation

Historic Weather in Oradea — Graph


Oradea temperature yesterday

Maximum temperature yesterday: 57 °F (at 3:00 PM)
Minimum temperature yesterday: 52 °F (at 10:30 AM)
Average temperature yesterday: 54 °F

Past Weeks' High & Low Weather Summary

High75 °F (Oct 4, 4:30 PM)100% (Sep 26, 7:00 AM)30.45 "Hg (Sep 26, 7:00 AM)
Low43 °F (Oct 2, 4:00 AM)37% (Oct 1, 4:30 PM)29.86 "Hg (Sep 25, 6:00 AM)
Average57 °F79%30.15 "Hg
* Reported Sep 25 6:00 AM — Oct 10 6:00 AM, Oradea, Weather by CustomWeather, © 2015

Note: Actual official high and low records may vary slightly from our data, if they occured in-between our weather recording intervals... More about our weather records


Oradea weather history for previous 24 hours

Time TempWeatherWind HumidityBarometerVisibility
6:00 AM
Sat, Oct 10
54 °FFog.2 mph94%30.12 "Hg3 mi
5:30 AM54 °FOvercast.No wind94%30.12 "Hg4 mi
5:00 AM54 °FMostly cloudy.3 mph94%30.12 "Hg4 mi
4:00 AM54 °FFog.1 mph88%30.12 "Hg3 mi
3:00 AM54 °FOvercast.2 mph94%30.15 "Hg4 mi
2:00 AM54 °FMostly cloudy.3 mph88%30.15 "Hg4 mi
1:00 AM54 °FPassing clouds.3 mph94%30.15 "Hg4 mi
12:00 AM54 °FMostly cloudy.2 mph94%30.15 "HgN/A
11:30 PM
Fri, Oct 9
54 °FOvercast.3 mph94%30.15 "HgN/A
11:00 PM54 °FPassing clouds.3 mph94%30.15 "HgN/A
10:30 PM54 °FMostly cloudy.3 mph94%30.15 "HgN/A
10:00 PM54 °FPartly cloudy.2 mph88%30.15 "Hg4 mi
9:30 PM54 °FPartly cloudy.2 mph88%30.15 "HgN/A
9:00 PM54 °FPassing clouds.2 mph88%30.15 "HgN/A
8:30 PM54 °FPassing clouds.2 mph88%30.12 "HgN/A
8:00 PM55 °FPassing clouds.3 mph88%30.15 "HgN/A
7:30 PM55 °FPartly sunny.3 mph82%30.12 "HgN/A
7:00 PM55 °FScattered clouds.5 mph82%30.12 "HgN/A
6:30 PM57 °FScattered clouds.6 mph77%30.12 "HgN/A
5:30 PM57 °FBroken clouds.7 mph77%30.12 "HgN/A
5:00 PM57 °FPartly sunny.7 mph77%30.12 "HgN/A
4:30 PM57 °FPartly sunny.6 mph77%30.12 "HgN/A
4:00 PM57 °FPartly sunny.3 mph77%30.12 "HgN/A
3:30 PM57 °FPartly sunny.3 mph77%30.12 "HgN/A
3:00 PM57 °FPartly sunny.3 mph77%30.12 "HgN/A
2:30 PM55 °FPartly sunny.5 mph82%30.12 "HgN/A
2:00 PM54 °FPartly sunny.6 mph82%30.15 "HgN/A
1:30 PM54 °FPartly sunny.6 mph82%30.15 "HgN/A
1:00 PM54 °FPartly sunny.5 mph88%30.15 "HgN/A
12:30 PM54 °FBroken clouds.6 mph82%30.15 "HgN/A
12:00 PM54 °FMore clouds than sun.8 mph82%30.15 "HgN/A
11:30 AM54 °FBroken clouds.7 mph82%30.15 "HgN/A
11:00 AM54 °FMore clouds than sun.6 mph88%30.15 "HgN/A
10:30 AM52 °FPartly sunny.7 mph94%30.12 "HgN/A
10:00 AM54 °FMostly cloudy.8 mph88%30.12 "Hg5 mi
9:30 AM54 °FPartly sunny.7 mph94%30.12 "Hg5 mi
9:00 AM54 °FFog.6 mph94%30.09 "Hg2 mi
8:30 AM54 °FFog.6 mph94%30.09 "Hg3 mi
8:00 AM54 °FLight rain. Fog.5 mph94%30.09 "Hg2 mi
7:00 AM54 °FLight rain. Fog.5 mph94%30.09 "Hg3 mi
Weather by CustomWeather, © 2015

See weather overviewHow to use our weather pages